sat.trackr.live / text

‹ back to catalog

STARLINK-31627

NORAD 59268 · 2024-050Q

PAYLOAD ACTIVE UNKNOWN

§ Identity

Operator
Country
US
Launch date
2024-03-19
Launch site
AFWTR
Launch vehicle
Mass (kg)
RCS (m²)

Purposes: comms

External: N2YO · Heavens-Above · Gunter

§ Orbital elements

Epoch: 2026-09-20T13:52:21.900000Z

Period
93.85 min
Inclination
53.1626°
Eccentricity
0.0001903
Mean motion
15.34406649 rev/d
Perigee alt
461.4 km
Apogee alt
464.0 km
Semi-major
6,840.8 km
B*
7.0780e-4
RAAN
353.1450°
Arg perigee
36.8945°
Mean anomaly
323.2189°
Rev number
14,042

§ Raw data

STARLINK-316271 59268U 24050Q   26263.57803125  .00023618  00000+0  70780-3 0  99952 59268  53.1626 353.1450 0001903  36.8945 323.2189 15.34406649140425

JSON: /api/v1/satellites/59268 · /tle

For live sub-satellite position, see the globe view (requires WebGL).

§ Visibility from observer

Set your observer location to see the next 7 days of passes ≥ 10°. The values pass through the URL so the page stays shareable.

No JS? Fill the form by hand. The geolocation button needs JavaScript.